AirNav   Air Wisconsin pilot careers
 
 1003 users online  

3W2 Put in Bay Airport
Put In Bay, Ohio, USA

GOING TO PUT IN BAY?


FAA INFORMATION EFFECTIVE 16 AUGUST 2018

Location

FAA Identifier: 3W2
Lat/Long: 41-38-12.0000N / 082-49-42.0000W
41-38.200000N / 082-49.700000W
41.6366667 / -82.8283333
(estimated)
Elevation: 595 ft. / 181.4 m (surveyed)
Variation: 07W (2000)
From city: 1 mile SW of PUT IN BAY, OH
Time zone: UTC -4 (UTC -5 during Standard Time)
Zip code: 43456

Airport Operations

Airport use: Open to the public
Activation date: 12/1938
Control tower: no
ARTCC: CLEVELAND CENTER
FSS: CLEVELAND FLIGHT SERVICE STATION
NOTAMs facility: CLE (NOTAM-D service available)
Attendance: UNATNDD
Wind indicator: yes
Segmented circle: yes
Landing fee: yes, PARKING/RAMP FEES ARE COLLECTED FOR ALL PVT AND COML ACFT. ALL PILOTS ARE RQRD TO CHECK INTO THE ARPT OFFICE AT THE TIME OF ARRIVAL. NO TIE-DOWN ROPES PRVDD; BRING YOUR OWN ROPES. ALL ACFT RQRD TO SHUT DOWN ENGINE(S) WHEN ENPLANING/DEPLANING PAX.

Airport Communications

CTAF/UNICOM: 122.8
WX AWOS-3 at PCW (7 nm S): 118.775 (419-734-9955)

Nearby radio navigation aids

VOR radial/distance  VOR name  Freq  Var
DJBr304/34.3DRYER VOR/DME113.6005W
YQGr186/36.8WINDSOR VOR/DME113.8006W
CRLr134/37.4CARLETON VOR/DME115.7003W
VWVr075/38.0WATERVILLE VOR/DME113.1002W

 
NDB name  Hdg/Dist  Freq  Var  ID
PORT CLINTON021/7.342307WPCW .--. -.-. .--
GROSSE ILE160/31.441907WRYS .-. -.-- ...
TIFFIN033/36.926905WTII - .. ..

Airport Services

Parking: tiedowns
Airframe service: MAJOR
Powerplant service: MAJOR

Runway Information

Runway 3/21

Dimensions: 2870 x 75 ft. / 875 x 23 m
Surface: asphalt, in excellent condition
RUNWAY 3  RUNWAY 21
Latitude: 41-38.001702N41-38.398105N
Longitude: 082-49.870983W082-49.528005W
Elevation: 592.2 ft.594.5 ft.
Gradient: 0.4%0.4%
Traffic pattern: rightleft
Displaced threshold: 450 ft.657 ft.
Markings: basic, in good conditionbasic, in good condition
Runway end identifier lights: nono
Touchdown point: yes, no lightsyes, no lights
Obstructions: 68 ft. trees, 404 ft. from runway, 3:1 slope to clear
APCH RATIO 7:1 TO DSPLCD THLD DUE TO +43 FT TREE 303 FT FM THLD 133 FT R.
7 ft. fence, 201 ft. from runway, 120 ft. right of centerline
7 FT FENCE O FT DSTC, 120L; 4 FT FENCE 0 FT DSTC 110R.

Airport Ownership and Management from official FAA records

Ownership: Publicly-owned
Owner: PUT IN BAY TOWNSHIP PORT AUTH
PO BOX 278
PUT IN BAY, OH 43456
Phone 419-285-3371
Manager: ROSANN KEISER
PO BOX 278
PUT IN BAY, OH 43456
Phone 419-285-3371

Airport Operational Statistics

Aircraft based on the field: 8
Single engine airplanes: 8
    
Aircraft operations: avg 41/day *
48% air taxi
42% transient general aviation
10% local general aviation
* for 12-month period ending 12 June 2016

Additional Remarks

EXPC MDT TURBC ON DEP/APCH WHEN WIND EXCEEDS 10 KT.
ACFT LNDG RY 21 OR DEP RY 03 REMAIN 1000 FT CLEAR OF PERRY'S MONUMENT 352 FT AGL/942 FT MSL 1-1/2 MILES NE OF ARPT.
ACFT OPNS PROHIBITED DUSK-DAWN.
NO TGL.
HELIPAD IS FOR TOUCHDOWN, LOADING AND LIFT OFF ONLY - PARK ON GRASS.
BIRD ACTIVITY NR RY 3/21.
BIRD ACTVTY ON AND INVOF ARPT.
DECOY COYOTE NEAR MOVEMENT AREAS.

Instrument Procedures

There are no published instrument procedures at 3W2.

Some nearby airports with instrument procedures:

KPCW - Erie-Ottawa International Airport (7 nm S)
S24 - Sandusky County Regional Airport (23 nm SW)
14G - Fremont Airport (24 nm SW)
5A1 - Norwalk-Huron County Airport (27 nm SE)
KTDZ - Toledo Executive Airport (30 nm W)
 
Loc | Ops | Rwys | IFR | FBO | Links
Com | Nav | Svcs | Stats | Notes


 
Area around 3W2 (Put in Bay Airport)
 
Road maps at: MapQuest Bing Google
 
Aerial photo
WARNING: Photo may not be current or correct
Aerial photo of 3W2 (Put in Bay Airport)
Photo by David Newcomer
Photo taken 22-Sep-2017
from 3,000' altitude looking north.

Do you have a better or more recent aerial photo of Put in Bay Airport that you would like to share? If so, please send us your photo.

 
Sectional chart

 
Airport distance calculator
Flying to Put in Bay Airport? Find the distance to fly.

From to 3W2

Sunrise and sunset
Times for 18-Aug-2018
 Local
(UTC-4)
 Zulu
(UTC)
Morning civil twilight06:1410:14
Sunrise06:4410:44
Sunset20:2600:26
Evening civil twilight20:5600:56

Current date and time
Zulu (UTC)  18-Aug-2018 22:38:39
Local (UTC-4)  18-Aug-2018 18:38:39
 
METAR
KPCW 
7nm S 
182215Z AUTO 06009KT 10SM CLR 25/19 A2992 RMK AO2
TAF
CYQG 
39nm N 
181738Z 1818/1918 06006KT P6SM FEW030 TEMPO 1819/1824 P6SM -SHRA BKN030 PROB30 1820/1824 VRB15G25KT 2SM TSRA BR BKN030CB FM190400 VRB03KT 6SM BR FEW030 PROB30 1906/1913 1SM BR FM191300 VRB03KT P6SM SCT030 BECMG 1916/1918 15008KT RMK NXT FCST BY 190000Z
KDTW 
42nm NW 
182144Z 1822/1924 15007KT P6SM VCTS BKN035CB FM182300 VRB05KT P6SM SCT040 FM190700 VRB05KT 5SM BR BKN008 TEMPO 1909/1912 2SM BR OVC005 FM191500 VRB05KT P6SM SCT030
KTOL 
44nm W 
181732Z 1818/1918 03005KT P6SM SCT040 TEMPO 1909/1912 5SM BR
KCLE 
46nm E 
182037Z 1821/1924 01012KT P6SM FEW200 FM190200 05006KT P6SM FEW200
KDET 
47nm N 
181724Z 1818/1918 03007KT P6SM SCT035 FM182000 VRB05KT P6SM VCTS BKN035CB FM182200 VRB05KT P6SM SCT040 FM190700 VRB05KT 6SM BR BKN008 TEMPO 1909/1912 3SM BR OVC005 FM191500 VRB05KT P6SM SCT025
KYIP 
48nm NW 
181724Z 1818/1918 03007KT P6SM BKN035 FM182000 VRB05KT P6SM VCTS BKN035CB FM182200 VRB05KT P6SM SCT040 FM190700 VRB05KT 5SM BR BKN008 TEMPO 1909/1912 2SM BR OVC005 FM191500 VRB05KT P6SM SCT025
NOTAMs
Click for the latest NOTAMs
NOTAMs are issued by the DoD/FAA and will open in a separate window not controlled by AirNav.

 

 
 

Aviation Businesses, Services, and Facilities

  
 Business Name 
 
 Contact 
 
 Services / Description 
 
Distance
 
Comments
  
Put In Bay Airport 419-351-5166
no information available

If you are affiliated with Put In Bay Airport and would like to show here your services, contact info, web link, logo, and more, click here
on airport  
   3 read write
 

Getting Around: Taxi, Limo, Rental Cars, Mass Transit

  
 Business Name 
 
 Contact 
 
Services / Description
 
Comments
  
Erie Island Carts 419-285-5278
[web site]
[email]
Ground transportation

More info about Erie Island Carts
 
   1 read write
 

Where to Eat: Catering, Restaurants, Food shops

  
 Business Name 
 
 Contact 
 
 Services / Description 
 
Distance
 
Comments
  
The Skyway 419-285-4331
no information available

If you are affiliated with The Skyway and would like to show here your services, contact info, web link, logo, and more, click here
on airport  
   write
 

Would you like to see your business listed on this page?

 If your business provides an interesting product or service to pilots, flight crews, aircraft, or users of the Put in Bay Airport, you should consider listing it here.  To start the listing process, click on the button below
 
Add a business
 

Other Pages about Put in Bay Airport

Put-in-Bay Airport
 
Update a link
 
Copyright © AirNav, LLC. All rights reserved. Privacy Policy  Contact